| time (UTC) | temp C | wind direction | speed KPH | gust KPH | rain 1hr cm | rain 24hr cm | rain mn cm | humidity % | barometer mb |
| 20260831124326 | 21 | 188 | 0.0 | 6.4 | 0.00 | 2.13 | 0.00 | 93 | 1016.2 |
| 20260831123325 | 20 | 180 | 0.0 | 0.0 | 0.00 | 2.21 | 0.00 | 93 | 1016.2 |
| 20260831122326 | 20 | 180 | 0.0 | 0.0 | 0.00 | 2.29 | 0.00 | 93 | 1016.2 |
| 20260831121325 | 20 | 180 | 0.0 | 0.0 | 0.00 | 2.36 | 0.00 | 93 | 1016.2 |
| 20260831120326 | 20 | 180 | 0.0 | 0.0 | 0.00 | 2.41 | 0.00 | 93 | 1016.2 |
| 20260831115326 | 20 | 180 | 0.0 | 0.0 | 0.00 | 2.44 | 0.00 | 92 | 1016.2 |
| 20260831114323 | 20 | 180 | 0.0 | 0.0 | 0.00 | 2.44 | 0.00 | 92 | 1016.3 |
| 20260831113322 | 20 | 180 | 0.0 | 0.0 | 0.00 | 2.44 | 0.00 | 92 | 1016.4 |
| 20260831112322 | 20 | 180 | 0.0 | 0.0 | 0.00 | 2.46 | 0.00 | 92 | 1016.4 |
| 20260831111322 | 20 | 180 | 0.0 | 0.0 | 0.00 | 2.46 | 0.00 | 92 | 1016.4 |
| 20260831110323 | 20 | 180 | 0.0 | 0.0 | 0.00 | 2.46 | 0.00 | 92 | 1016.5 |
| 20260831105321 | 20 | 180 | 0.0 | 0.0 | 0.00 | 2.46 | 0.00 | 92 | 1016.4 |
| 20260831104324 | 20 | 180 | 0.0 | 0.0 | 0.00 | 2.46 | 0.00 | 92 | 1016.3 |
| 20260831103325 | 20 | 180 | 0.0 | 0.0 | 0.00 | 2.46 | 0.00 | 92 | 1016.3 |
| 20260831102323 | 20 | 180 | 0.0 | 0.0 | 0.00 | 2.46 | 0.00 | 92 | 1016.2 |
| 20260831101326 | 20 | 180 | 0.0 | 0.0 | 0.00 | 2.46 | 0.00 | 92 | 1016.2 |
| 20260831100323 | 20 | 180 | 0.0 | 3.2 | 0.00 | 2.46 | 0.00 | 92 | 1016.2 |
| 20260831095320 | 20 | 180 | 0.0 | 0.0 | 0.00 | 2.46 | 0.00 | 92 | 1016.1 |
| 20260831094321 | 20 | 180 | 0.0 | 0.0 | 0.00 | 2.49 | 0.00 | 92 | 1016.0 |
| 20260831093315 | 20 | 180 | 0.0 | 0.0 | 0.00 | 2.51 | 0.00 | 92 | 1016.2 |
| 20260831092316 | 20 | 180 | 0.0 | 0.0 | 0.00 | 2.51 | 0.00 | 92 | 1016.1 |
| 20260831091316 | 20 | 180 | 0.0 | 0.0 | 0.00 | 2.51 | 0.00 | 92 | 1016.2 |
| 20260831090316 | 20 | 180 | 0.0 | 3.2 | 0.00 | 2.51 | 0.00 | 92 | 1016.2 |
| 20260831085317 | 20 | 180 | 0.0 | 6.4 | 0.00 | 2.51 | 0.00 | 91 | 1016.2 |
| 20260831084314 | 20 | 184 | 0.0 | 6.4 | 0.00 | 2.54 | 0.00 | 91 | 1016.1 |
| 20260831083319 | 20 | 180 | 0.0 | 3.2 | 0.00 | 2.57 | 0.00 | 91 | 1016.2 |
| 20260831082316 | 20 | 180 | 0.0 | 0.0 | 0.00 | 2.57 | 0.00 | 90 | 1015.9 |
| 20260831081318 | 20 | 180 | 0.0 | 0.0 | 0.00 | 2.57 | 0.00 | 90 | 1015.9 |
| 20260831080313 | 20 | 180 | 0.0 | 0.0 | 0.00 | 2.57 | 0.00 | 90 | 1015.9 |
| 20260831075315 | 20 | 180 | 0.0 | 0.0 | 0.00 | 2.57 | 0.00 | 90 | 1016.1 |
| 20260831074313 | 20 | 180 | 0.0 | 0.0 | 0.00 | 2.57 | 0.00 | 90 | 1016.0 |
| 20260831073323 | 20 | 180 | 0.0 | 0.0 | 0.00 | 2.57 | 0.00 | 90 | 1016.1 |
| 20260831072319 | 20 | 180 | 0.0 | 3.2 | 0.00 | 2.57 | 0.00 | 89 | 1016.1 |
| 20260831071312 | 21 | 180 | 0.0 | 3.2 | 0.00 | 2.57 | 0.00 | 89 | 1016.1 |
| 20260831070312 | 21 | 180 | 0.0 | 0.0 | 0.00 | 2.57 | 0.00 | 89 | 1016.3 |
| 20260831065310 | 21 | 180 | 0.0 | 0.0 | 0.00 | 2.57 | 0.00 | 89 | 1016.4 |
| 20260831064809 | 21 | 180 | 0.0 | 0.0 | 0.00 | 2.57 | 0.00 | 89 | 1016.5 |
| 20260831063308 | 21 | 180 | 0.0 | 3.2 | 0.00 | 2.57 | 0.00 | 89 | 1016.5 |
| 20260831062308 | 21 | 180 | 0.0 | 3.2 | 0.00 | 2.57 | 0.00 | 89 | 1016.5 |
| 20260831061311 | 21 | 180 | 0.0 | 3.2 | 0.00 | 2.57 | 0.00 | 89 | 1016.5 |
| 20260831060311 | 21 | 180 | 0.0 | 0.0 | 0.00 | 2.57 | 0.00 | 89 | 1016.6 |
| 20260831055308 | 21 | 180 | 0.0 | 3.2 | 0.00 | 2.57 | 0.00 | 89 | 1016.6 |
| 20260831054309 | 21 | 180 | 0.0 | 8.0 | 0.00 | 2.57 | 0.00 | 89 | 1016.6 |
| 20260831053311 | 21 | 185 | 0.0 | 6.4 | 0.00 | 2.57 | 0.00 | 89 | 1016.7 |
| 20260831052307 | 21 | 184 | 0.0 | 11.3 | 0.00 | 2.57 | 0.00 | 90 | 1016.6 |
| 20260831051308 | 21 | 188 | 3.2 | 8.0 | 0.00 | 2.57 | 0.00 | 90 | 1016.7 |
| 20260831050307 | 21 | 188 | 3.2 | 6.4 | 0.00 | 2.57 | 0.00 | 90 | 1016.8 |
| 20260831045306 | 21 | 188 | 3.2 | 11.3 | 0.00 | 2.57 | 0.00 | 90 | 1016.8 |
| 20260831044309 | 21 | 184 | 3.2 | 11.3 | 0.00 | 2.57 | 0.00 | 91 | 1016.8 |
| 20260831043306 | 21 | 182 | 6.4 | 14.5 | 0.00 | 2.57 | 0.00 | 91 | 1016.8 |
| 20260831042309 | 21 | 163 | 6.4 | 17.7 | 0.00 | 2.57 | 0.00 | 91 | 1016.7 |
| 20260831041309 | 21 | 175 | 3.2 | 11.3 | 0.00 | 2.57 | 0.00 | 91 | 1016.7 |
| 20260831040308 | 21 | 169 | 6.4 | 17.7 | 0.00 | 2.57 | 0.00 | 91 | 1016.8 |
| 20260831035307 | 20 | 188 | 6.4 | 14.5 | 0.00 | 2.57 | 2.57 | 92 | 1016.9 |
| 20260831034310 | 20 | 188 | 6.4 | 19.3 | 0.00 | 2.57 | 2.57 | 92 | 1016.9 |
| 20260831033306 | 20 | 193 | 3.2 | 11.3 | 0.00 | 2.57 | 2.57 | 91 | 1016.9 |
| 20260831032310 | 20 | 198 | 3.2 | 8.0 | 0.00 | 2.57 | 2.57 | 92 | 1016.8 |
| 20260831031301 | 20 | 190 | 3.2 | 11.3 | 0.00 | 2.57 | 2.57 | 92 | 1016.8 |
| 20260831030303 | 20 | 192 | 0.0 | 8.0 | 0.00 | 2.57 | 2.57 | 92 | 1016.8 |
| 20260831025300 | 20 | 174 | 3.2 | 6.4 | 0.00 | 2.57 | 2.57 | 92 | 1016.8 |
| 20260831024302 | 20 | 196 | 0.0 | 6.4 | 0.00 | 2.57 | 2.57 | 92 | 1016.8 |
| 20260831023303 | 20 | 192 | 0.0 | 6.4 | 0.00 | 2.57 | 2.57 | 92 | 1016.7 |
| 20260831022300 | 20 | 175 | 0.0 | 6.4 | 0.00 | 2.57 | 2.57 | 92 | 1016.7 |
| 20260831021300 | 20 | 210 | 0.0 | 6.4 | 0.00 | 2.57 | 2.57 | 92 | 1016.7 |
| 20260831020304 | 20 | 202 | 3.2 | 6.4 | 0.00 | 2.57 | 2.57 | 92 | 1016.6 |
| 20260831015313 | 20 | 176 | 0.0 | 8.0 | 0.00 | 2.57 | 2.57 | 92 | 1016.6 |
| 20260831014258 | 20 | 188 | 3.2 | 8.0 | 0.00 | 2.57 | 2.57 | 92 | 1016.5 |
| 20260831013255 | 20 | 190 | 0.0 | 0.0 | 0.00 | 2.57 | 2.57 | 92 | 1016.5 |
| 20260831012258 | 20 | 142 | 0.0 | 0.0 | 0.00 | 2.57 | 2.57 | 92 | 1016.5 |
| 20260831011256 | 20 | 146 | 3.2 | 8.0 | 0.00 | 2.57 | 2.57 | 92 | 1016.5 |
| 20260831010256 | 20 | 142 | 3.2 | 8.0 | 0.00 | 2.57 | 2.57 | 92 | 1016.4 |
| 20260831005253 | 21 | 157 | 3.2 | 11.3 | 0.00 | 2.57 | 2.57 | 92 | 1016.4 |
| 20260831004253 | 21 | 160 | 3.2 | 8.0 | 0.00 | 2.57 | 2.57 | 92 | 1016.3 |
| 20260831003256 | 21 | 140 | 3.2 | 8.0 | 0.00 | 2.57 | 2.57 | 92 | 1016.2 |
| 20260831002257 | 21 | 145 | 3.2 | 6.4 | 0.00 | 2.57 | 2.57 | 92 | 1016.4 |
| 20260831001249 | 21 | 190 | 3.2 | 8.0 | 0.00 | 2.57 | 2.57 | 92 | 1016.3 |
| 20260831000251 | 21 | 155 | 3.2 | 8.0 | 0.00 | 2.57 | 2.57 | 92 | 1016.2 |
| 20260830235249 | 21 | 148 | 6.4 | 11.3 | 0.00 | 2.57 | 2.57 | 91 | 1016.2 |
| 20260830234250 | 21 | 136 | 3.2 | 11.3 | 0.00 | 2.57 | 2.57 | 91 | 1016.4 |
| 20260830233247 | 21 | 158 | 6.4 | 17.7 | 0.00 | 2.57 | 2.57 | 91 | 1016.4 |
| 20260830232247 | 21 | 140 | 6.4 | 14.5 | 0.00 | 2.57 | 2.57 | 91 | 1016.4 |
| 20260830231246 | 21 | 142 | 3.2 | 8.0 | 0.00 | 2.57 | 2.57 | 90 | 1016.5 |
| 20260830230243 | 21 | 146 | 6.4 | 11.3 | 0.00 | 2.57 | 2.57 | 90 | 1016.7 |
| 20260830225241 | 21 | 156 | 3.2 | 11.3 | 0.00 | 2.57 | 2.57 | 90 | 1016.9 |
| 20260830224242 | 21 | 207 | 0.0 | 0.0 | 0.00 | 2.57 | 2.57 | 90 | 1017.0 |
| 20260830223240 | 21 | 207 | 0.0 | 3.2 | 0.00 | 2.57 | 2.57 | 90 | 1017.1 |
| 20260830222243 | 21 | 207 | 3.2 | 8.0 | 0.00 | 2.57 | 2.57 | 90 | 1017.0 |
| 20260830221242 | 21 | 164 | 3.2 | 11.3 | 0.00 | 2.57 | 2.57 | 90 | 1017.2 |
| 20260830220243 | 21 | 171 | 3.2 | 8.0 | 0.00 | 2.57 | 2.57 | 91 | 1017.0 |
| 20260830215245 | 21 | 153 | 0.0 | 0.0 | 0.00 | 2.57 | 2.57 | 91 | 1016.9 |
| 20260830214247 | 21 | 159 | 0.0 | 6.4 | 0.00 | 2.57 | 2.57 | 92 | 1016.8 |
| 20260830213241 | 21 | 198 | 6.4 | 11.3 | 0.00 | 2.57 | 2.57 | 92 | 1017.1 |
| 20260830212242 | 21 | 149 | 3.2 | 8.0 | 0.00 | 2.57 | 2.57 | 92 | 1016.9 |
| 20260830211236 | 21 | 153 | 3.2 | 14.5 | 0.00 | 2.57 | 2.57 | 92 | 1016.8 |
| 20260830210238 | 21 | 188 | 6.4 | 11.3 | 0.00 | 2.57 | 2.57 | 92 | 1016.6 |
| 20260830205238 | 21 | 188 | 0.0 | 11.3 | 0.00 | 2.57 | 2.57 | 93 | 1016.6 |
| 20260830204235 | 21 | 141 | 3.2 | 6.4 | 0.00 | 2.57 | 2.57 | 92 | 1016.6 |
| 20260830203235 | 21 | 141 | 3.2 | 14.5 | 0.00 | 2.57 | 2.57 | 92 | 1016.5 |
| 20260830202235 | 21 | 169 | 6.4 | 14.5 | 0.00 | 2.57 | 2.57 | 93 | 1016.5 |
| 20260830201232 | 21 | 186 | 3.2 | 11.3 | 0.00 | 2.57 | 2.57 | 93 | 1016.7 |
| 20260830200230 | 20 | 143 | 3.2 | 8.0 | 0.00 | 2.57 | 2.57 | 93 | 1016.7 |
| 20260830195233 | 20 | 154 | 3.2 | 8.0 | 0.00 | 2.57 | 2.57 | 94 | 1016.7 |
| 20260830194226 | 20 | 186 | 3.2 | 11.3 | 0.00 | 2.57 | 2.57 | 94 | 1016.8 |
| 20260830193226 | 20 | 142 | 6.4 | 11.3 | 0.00 | 2.57 | 2.57 | 94 | 1016.6 |
| 20260830192224 | 20 | 153 | 3.2 | 8.0 | 0.00 | 2.57 | 2.57 | 95 | 1016.8 |
| 20260830191223 | 20 | 157 | 3.2 | 11.3 | 0.00 | 2.57 | 2.57 | 95 | 1016.7 |
| 20260830190222 | 20 | 146 | 0.0 | 0.0 | 0.00 | 2.57 | 2.57 | 96 | 1017.0 |
| 20260830185228 | 20 | 159 | 0.0 | 6.4 | 0.00 | 2.57 | 2.57 | 95 | 1016.9 |
| 20260830184224 | 20 | 159 | 3.2 | 6.4 | 0.00 | 2.57 | 2.57 | 95 | 1017.2 |
| 20260830183222 | 20 | 159 | 0.0 | 0.0 | 0.00 | 2.57 | 2.57 | 95 | 1017.5 |
| 20260830182233 | 20 | 159 | 0.0 | 6.4 | 0.00 | 2.57 | 2.57 | 95 | 1017.4 |
| 20260830181227 | 19 | 159 | 0.0 | 6.4 | 0.00 | 2.57 | 2.57 | 95 | 1017.2 |
| 20260830180218 | 19 | 159 | 3.2 | 11.3 | 0.03 | 2.57 | 2.57 | 95 | 1017.1 |
| 20260830175216 | 19 | 170 | 6.4 | 14.5 | 0.03 | 2.57 | 2.57 | 95 | 1017.2 |
| 20260830173216 | 19 | 170 | 3.2 | 11.3 | 0.05 | 2.57 | 2.57 | 95 | 1017.3 |
| 20260830172219 | 19 | 149 | 6.4 | 8.0 | 0.08 | 2.57 | 2.57 | 95 | 1017.2 |
| 20260830171219 | 19 | 200 | 6.4 | 14.5 | 0.18 | 2.57 | 2.57 | 96 | 1017.1 |
| 20260830170218 | 18 | 146 | 3.2 | 8.0 | 0.38 | 2.54 | 2.54 | 96 | 1017.6 |
| 20260830165219 | 18 | 176 | 3.2 | 14.5 | 0.43 | 2.54 | 2.54 | 95 | 1018.1 |
| 20260830164214 | 18 | 162 | 6.4 | 14.5 | 0.51 | 2.54 | 2.54 | 95 | 1017.9 |
| 20260830163211 | 18 | 198 | 6.4 | 19.3 | 0.56 | 2.51 | 2.51 | 95 | 1018.1 |
| 20260830162210 | 18 | 192 | 8.0 | 19.3 | 0.56 | 2.49 | 2.49 | 95 | 1018.0 |
| 20260830161210 | 18 | 194 | 8.0 | 19.3 | 0.48 | 2.39 | 2.39 | 95 | 1018.3 |
| 20260830160214 | 18 | 174 | 6.4 | 19.3 | 0.33 | 2.16 | 2.16 | 95 | 1018.9 |
| 20260830155212 | 18 | 186 | 3.2 | 14.5 | 0.30 | 2.11 | 2.11 | 95 | 1019.1 |
| 20260830154212 | 18 | 167 | 6.4 | 11.3 | 0.28 | 2.03 | 2.03 | 95 | 1018.7 |
| 20260830153212 | 18 | 211 | 6.4 | 11.3 | 0.25 | 1.96 | 1.98 | 95 | 1018.8 |
| 20260830152208 | 18 | 209 | 6.4 | 14.5 | 0.28 | 1.93 | 1.93 | 95 | 1019.1 |
| 20260830151209 | 18 | 202 | 3.2 | 11.3 | 0.36 | 1.91 | 1.91 | 95 | 1019.3 |
| 20260830150211 | 18 | 221 | 0.0 | 3.2 | 0.41 | 1.83 | 1.83 | 95 | 1019.3 |
| 20260830145211 | 18 | 221 | 0.0 | 6.4 | 0.53 | 1.80 | 1.80 | 95 | 1019.5 |
| 20260830144205 | 18 | 221 | 0.0 | 8.0 | 0.61 | 1.75 | 1.75 | 95 | 1019.5 |
| 20260830143205 | 18 | 182 | 3.2 | 11.3 | 0.69 | 1.70 | 1.70 | 95 | 1019.2 |
| 20260830142205 | 18 | 182 | 0.0 | 8.0 | 0.79 | 1.65 | 1.65 | 95 | 1019.4 |
| 20260830141205 | 18 | 213 | 3.2 | 8.0 | 0.84 | 1.55 | 1.55 | 95 | 1019.3 |
| 20260830140208 | 18 | 192 | 0.0 | 6.4 | 0.86 | 1.42 | 1.45 | 95 | 1019.1 |
| 20260830135206 | 18 | 194 | 3.2 | 11.3 | 0.79 | 1.27 | 1.30 | 94 | 1019.1 |
| 20260830134202 | 19 | 200 | 3.2 | 14.5 | 0.74 | 1.14 | 1.17 | 95 | 1019.2 |
| 20260830133202 | 19 | 210 | 0.0 | 8.0 | 0.66 | 1.02 | 1.02 | 95 | 1019.3 |
| 20260830132158 | 19 | 208 | 0.0 | 6.4 | 0.56 | 0.84 | 0.86 | 95 | 1019.2 |
| 20260830131157 | 19 | 292 | 0.0 | 6.4 | 0.51 | 0.71 | 0.71 | 95 | 1019.3 |
| 20260830130158 | 19 | 192 | 0.0 | 8.0 | 0.41 | 0.56 | 0.58 | 94 | 1018.8 |
| 20260830125159 | 19 | 184 | 0.0 | 3.2 | 0.36 | 0.48 | 0.48 | 94 | 1018.8 |